Temp_Advection
nan nan nan nan nan nan nan nan nan nan nan nan nan nan nan nan nan nan nan nan nan nan nan nan nan nan nan nan nan nan nan nan nan nan nan nan nan nan
nan 0 0 0 0 0 1 1 1 1 -1 -2 -0 -0 -1 -1 -1 -0 -1 -1 -1 -1 -0 -0 -1 -1 -1 -1 -0 -0 -1 -1 -1 -1 -1 -1 -1 nan
nan 0 0 0 0 1 1 1 1 1 -1 -2 -0 -0 -0 -0 -0 0 0 0 0 -0 -0 -0 -0 -1 -0 -1 -1 -0 -0 -1 -1 -1 -1 -1 -0 nan
nan 0 0 0 0 0 0 1 1 1 1 -1 -1 -0 -0 -0 -0 0 -0 -0 -0 -0 -0 -1 -1 -1 -0 -0 -1 -1 -1 -1 -1 -1 -1 -1 -1 nan
nan 0 0 0 0 1 1 1 1 1 0 -0 -1 -0 -0 -0 -0 -0 -0 -0 -0 -0 -0 -1 -1 -1 -1 -1 -1 -1 -0 -0 -0 -0 -1 -1 -1 nan
nan 0 0 0 0 0 0 1 1 0 -0 -0 -0 -0 -0 -1 0 0 -0 -0 -1 -1 -0 -0 -1 -1 -1 -1 -0 -0 -0 1 -0 -1 -1 -1 -1 nan
nan 0 0 0 0 1 1 0 0 -0 -0 -0 -0 -0 -0 -0 -0 -0 -0 -0 -1 -1 -1 -1 -1 -1 -0 -1 -2 1 1 -0 -0 -1 -2 -1 1 nan
nan 0 0 0 0 0 1 1 1 0 -0 -0 -0 -0 -0 -0 0 -0 -1 -1 -1 -1 -1 -1 -1 -1 -1 -1 -1 -0 -1 -2 -1 1 0 -1 -1 nan
nan -0 0 0 1 -0 0 1 -0 0 0 0 -0 -0 -0 -0 -0 -0 0 -0 -1 -1 -1 -2 -0 0 -1 -1 -1 -0 -1 -0 -0 -0 -1 -0 -1 nan
nan 0 0 0 1 1 -0 -0 -0 -0 0 1 1 -0 0 1 0 -0 -0 -1 -2 -1 -0 -1 -1 -0 -1 -1 -1 -1 -1 0 0 -1 -0 -0 -0 nan
nan 0 -0 -0 0 1 1 -0 -0 -0 -0 0 0 -0 -1 1 1 -0 -0 -0 -1 -2 -0 -1 -1 -0 -1 -2 -2 -0 -0 -1 -0 0 0 -0 -1 nan
nan 0 0 0 0 1 1 1 -0 -0 0 -0 -0 0 0 -1 0 0 -0 -1 -1 -3 1 1 -1 -2 -1 -1 -1 -0 -0 -1 -0 -0 -1 -1 -0 nan
nan 0 0 0 0 0 1 1 2 1 0 -0 -0 -1 -0 -1 0 1 1 1 -0 -5 -1 3 -0 -1 -1 -1 -1 -0 -0 -0 -0 -0 -0 -1 -1 nan
nan -0 -0 0 0 0 0 0 1 1 0 -0 -1 -0 -0 -1 -1 0 0 1 1 -0 -2 1 -0 -0 -1 -1 -1 -0 -0 1 -0 -0 -0 -0 -1 nan
nan -0 -0 -0 -0 -0 0 -0 -0 -0 -0 -0 0 -0 -0 -0 -1 -1 -1 -1 -1 0 1 1 -0 -0 -1 -0 0 -0 -3 -1 1 -0 0 -1 -2 nan
nan -0 -0 -0 -0 -0 -0 -0 -1 0 1 1 0 -0 -0 -0 -1 -0 -1 -1 -2 -4 -1 1 -0 -1 1 0 -0 -1 0 -1 -1 -0 -1 -1 -1 nan
nan -0 -0 -0 -0 -1 -1 -1 -0 0 1 1 0 -0 -1 -0 -1 -0 -1 -1 -0 -3 -4 -1 0 -0 -0 -0 -1 -1 -0 0 -1 0 -1 -1 -1 nan
nan -0 -0 -1 -1 -1 -1 -1 -1 -0 -0 0 -0 0 -0 -0 -1 -0 0 -1 -0 -1 -1 -2 -0 -0 -0 -0 -0 -0 -0 -1 -2 -1 -1 -1 -1 nan
nan -0 -1 -1 -1 -1 -1 -0 -1 -0 -0 -0 1 0 1 -0 -0 -0 -0 -0 -0 -0 -1 -0 -0 0 -1 -1 -2 0 1 -0 -1 -1 -1 -1 -2 nan
nan -0 -0 -0 -0 -0 -0 -0 0 -0 -0 -0 1 -0 0 0 -0 -0 0 -0 -1 -0 -1 -0 -0 0 0 -0 -2 -2 1 0 -1 -1 -1 -1 -1 nan
nan -0 -0 -0 -0 -0 -0 -0 -0 -0 -0 0 -0 0 0 0 0 -0 0 0 0 -0 -1 -1 0 0 0 0 -0 -2 -0 1 0 -0 0 -1 -1 nan
nan -0 -0 -0 -0 -0 -0 -0 -0 0 0 -0 0 1 0 0 0 0 0 0 0 -0 -0 -1 -0 0 -0 0 -0 -1 -1 0 0 1 2 1 -3 nan
nan nan nan nan nan nan nan nan nan nan nan nan nan nan nan nan nan nan nan nan nan nan nan nan nan nan nan nan nan nan nan nan nan nan nan nan nan nan
Wind_Speed
12 13 14 16 17 18 20 20 18 18 27 20 25 32 38 40 40 40 41 41 41 39 37 37 38 38 39 39 39 40 41 41 41 40 40 40 40 40
13 13 14 16 18 20 20 21 20 22 28 30 36 36 36 37 37 37 40 40 40 38 37 38 40 40 40 41 41 41 40 41 42 42 42 42 40 40
13 14 14 16 18 20 20 21 22 22 32 43 38 37 36 38 39 37 39 40 42 38 37 40 42 41 42 41 42 43 42 40 40 41 41 40 40 39
14 14 15 17 18 19 20 22 24 25 28 40 39 41 39 39 41 43 41 40 40 42 42 41 42 42 42 42 41 41 41 41 41 41 41 41 40 39
14 14 15 16 18 19 20 23 24 24 28 36 45 43 42 41 44 42 41 43 41 40 41 40 40 39 40 39 39 41 43 43 43 44 44 43 42 41
14 14 15 17 18 20 22 24 26 28 30 36 42 46 43 42 41 46 48 40 43 44 45 39 39 37 38 37 40 47 44 46 44 42 41 41 41 43
13 13 15 17 18 19 21 22 25 28 30 36 42 44 43 44 42 44 48 51 47 40 43 43 40 46 48 45 46 45 42 42 41 41 41 41 42 44
12 13 15 17 18 21 23 23 23 27 32 36 42 45 46 43 47 45 50 49 56 40 37 54 46 49 49 47 46 42 44 46 45 47 49 48 47 48
12 13 15 17 20 21 23 22 25 26 28 33 38 40 46 44 48 51 50 48 48 51 47 50 50 49 50 49 46 45 48 51 51 51 52 51 51 50
12 13 15 18 19 21 21 24 27 27 27 30 33 39 42 45 45 47 47 51 48 45 39 47 55 54 54 54 48 50 50 47 46 47 47 48 48 49
12 12 14 17 18 19 22 26 27 28 29 31 33 37 39 36 34 38 42 42 47 44 45 43 46 51 56 59 51 44 44 45 51 51 52 50 48 47
10 12 13 15 17 19 21 24 28 29 33 36 38 36 33 32 30 30 37 41 44 51 46 42 52 52 47 52 43 50 53 51 53 52 45 42 42 46
9 11 13 15 17 19 22 24 27 31 35 36 38 36 33 35 36 35 35 36 41 46 51 42 52 55 50 60 50 53 52 53 47 48 41 33 33 37
9 11 13 15 17 20 22 24 27 31 33 37 34 36 38 39 42 41 41 40 40 44 47 43 49 55 58 61 61 63 54 49 41 41 28 21 25 33
7 10 13 15 18 20 22 25 28 29 32 32 34 37 39 41 43 43 43 44 42 44 42 42 47 54 53 52 63 61 52 51 31 10 20 20 22 28
7 9 12 15 17 20 24 26 28 28 30 32 38 40 41 42 42 41 45 48 46 50 48 47 45 45 51 52 51 58 47 37 44 33 17 16 25 27
7 11 13 16 20 23 26 29 30 33 35 37 39 39 42 44 44 44 43 47 44 48 55 55 49 50 45 43 47 38 43 44 37 26 15 21 30 32
9 13 15 18 22 26 31 34 35 35 36 37 36 39 42 43 45 46 43 44 45 48 52 55 57 57 46 38 26 42 42 39 37 13 19 27 30 38
10 13 16 20 23 27 31 34 36 37 36 37 37 41 43 43 44 45 44 46 49 49 50 50 51 50 49 46 49 41 42 39 31 17 26 36 39 36
11 14 17 21 24 27 32 36 37 38 37 38 40 42 44 43 46 44 44 45 47 50 49 46 48 49 45 47 50 45 23 31 22 10 31 43 42 36
11 14 18 21 23 27 31 35 36 37 37 40 42 45 47 44 46 45 46 44 42 48 47 49 52 45 41 36 38 38 22 20 12 5 8 34 43 46
13 15 18 20 23 26 30 34 35 38 39 41 44 46 45 45 45 45 44 47 47 47 45 50 51 45 40 34 38 33 25 20 20 13 18 37 58 40
13 16 18 21 24 25 29 32 35 37 40 44 47 46 45 48 45 43 43 42 44 45 46 47 48 42 37 30 31 30 28 27 32 36 37 35 49 58
Wind_Direction
284 288 293 296 297 299 299 296 292 300 305 305 306 313 311 313 315 312 314 318 317 311 301 296 294 291 289 288 287 285 283 282 281 279 278 275 274 272
277 284 292 293 295 297 298 295 289 281 282 298 303 307 310 308 309 304 306 304 302 302 299 298 295 290 287 285 286 285 285 282 280 279 278 274 271 269
275 283 287 289 293 297 296 295 293 288 285 301 303 309 306 308 306 305 303 305 305 301 298 297 294 288 286 285 286 285 283 281 279 279 277 273 271 269
273 280 286 289 293 297 297 297 295 294 291 296 306 308 309 310 308 306 306 305 302 301 298 295 291 289 286 284 284 284 282 280 280 279 274 272 271 267
271 279 283 287 294 297 298 297 297 295 296 300 305 309 308 310 310 306 305 304 301 300 299 298 293 289 287 284 283 285 281 277 279 275 271 269 267 263
270 277 284 290 296 299 298 301 307 302 303 303 306 308 308 310 305 308 309 306 308 309 305 301 300 295 289 286 285 288 286 282 279 274 269 268 265 262
270 280 286 292 298 299 298 298 299 302 303 308 306 305 306 310 310 311 308 310 309 310 304 305 301 300 297 294 301 300 286 282 278 273 270 270 268 263
271 281 290 297 299 300 300 298 297 300 301 305 303 303 306 308 311 311 309 309 309 312 304 303 304 298 298 299 300 289 285 284 284 278 269 268 266 263
273 284 292 298 304 302 303 302 302 300 299 299 300 302 306 310 312 309 305 304 301 304 308 299 306 296 303 301 296 290 288 290 285 280 276 270 264 260
276 288 295 302 304 305 309 305 304 308 306 303 300 306 309 308 303 302 303 305 305 305 302 292 306 299 305 300 295 292 296 291 285 280 273 269 263 256
281 291 298 304 309 311 306 311 312 310 311 312 307 307 310 309 308 309 307 307 303 302 307 299 299 299 300 299 303 295 290 286 283 276 273 268 260 255
286 299 308 311 316 319 318 315 312 319 318 317 319 319 320 316 314 312 309 302 300 304 314 307 308 307 303 300 300 297 295 291 287 286 281 268 259 252
300 304 307 315 321 324 321 319 319 321 322 322 329 327 322 323 328 324 319 306 302 297 321 309 307 307 299 302 302 302 298 297 294 293 289 272 249 238
298 309 315 322 327 326 324 325 328 329 330 330 327 323 326 328 335 334 329 319 312 307 321 323 305 305 300 299 301 307 306 302 299 300 292 278 249 218
307 314 323 328 330 330 331 334 337 336 331 328 323 326 331 334 334 331 328 328 323 325 326 319 310 305 299 300 301 305 307 319 320 313 313 253 222 204
328 331 332 331 332 337 341 343 342 338 333 329 332 336 336 332 330 331 328 334 329 329 331 328 318 312 308 305 303 303 311 298 318 313 289 229 199 203
340 333 334 340 344 347 347 346 344 343 342 341 339 335 334 333 330 332 328 336 326 320 325 331 324 320 316 314 308 312 319 320 323 319 238 208 199 193
343 340 347 349 352 352 350 345 346 346 344 341 338 336 333 330 327 330 330 333 325 324 324 327 326 328 327 324 321 317 323 321 323 278 219 201 205 204
351 351 351 353 354 353 350 347 343 345 343 344 339 343 337 330 328 327 328 333 330 328 326 328 330 331 327 323 328 334 328 332 327 242 219 207 196 194
1 354 353 356 355 352 351 348 346 345 345 344 343 344 342 330 328 325 328 330 330 328 328 330 334 334 326 321 320 331 352 345 329 246 215 209 207 197
2 355 354 354 352 350 350 349 349 348 346 345 346 344 341 331 327 326 329 332 333 335 328 330 335 338 336 337 329 335 3 37 15 331 172 186 186 175
359 352 351 349 349 347 348 350 350 351 348 348 347 343 335 333 328 327 331 333 336 334 330 334 341 345 343 347 339 346 1 36 52 59 89 146 157 153
351 346 346 346 345 345 344 347 348 349 351 349 346 343 335 331 332 329 332 333 337 337 333 338 345 349 348 354 358 0 18 42 64 68 73 121 140 157
Height
1503 1503 1503 1502 1501 1500 1498 1496 1494 1486 1478 1474 1470 1465 1460 1454 1448 1443 1437 1432 1426 1421 1417 1413 1410 1406 1403 1400 1395 1392 1389 1386 1383 1380 1378 1376 1375 1373
1498 1498 1498 1497 1496 1495 1493 1491 1489 1485 1475 1467 1463 1458 1453 1446 1442 1437 1431 1426 1420 1414 1409 1405 1400 1396 1392 1389 1384 1381 1377 1374 1372 1369 1366 1364 1363 1362
1493 1492 1492 1492 1491 1490 1488 1486 1483 1479 1469 1457 1455 1451 1446 1439 1435 1430 1424 1416 1410 1407 1401 1395 1389 1384 1381 1377 1373 1369 1365 1362 1359 1357 1354 1352 1351 1350
1489 1488 1488 1488 1487 1485 1483 1480 1477 1473 1466 1453 1449 1443 1439 1433 1427 1420 1414 1408 1402 1397 1393 1385 1378 1374 1369 1365 1360 1356 1352 1349 1347 1344 1342 1340 1339 1339
1485 1484 1484 1483 1483 1481 1479 1475 1471 1467 1461 1453 1440 1438 1431 1426 1418 1412 1406 1398 1393 1387 1380 1372 1366 1361 1356 1352 1348 1344 1340 1336 1333 1330 1327 1325 1324 1326
1480 1479 1480 1479 1477 1476 1473 1470 1466 1461 1456 1449 1439 1430 1425 1419 1414 1401 1389 1388 1379 1375 1369 1361 1354 1348 1343 1340 1336 1329 1323 1320 1316 1313 1311 1310 1309 1310
1476 1476 1475 1474 1472 1470 1467 1465 1462 1456 1450 1442 1434 1425 1418 1410 1405 1395 1385 1375 1369 1367 1356 1351 1345 1337 1330 1325 1319 1313 1308 1304 1301 1299 1297 1295 1295 1295
1472 1472 1471 1469 1468 1466 1463 1460 1456 1450 1444 1438 1429 1419 1411 1405 1397 1390 1381 1371 1350 1361 1350 1337 1335 1323 1317 1311 1304 1299 1295 1290 1285 1282 1281 1280 1279 1279
1468 1468 1467 1465 1463 1461 1457 1453 1450 1445 1441 1434 1423 1416 1404 1399 1391 1380 1376 1368 1356 1347 1344 1326 1321 1311 1305 1297 1291 1285 1278 1271 1267 1263 1261 1260 1261 1262
1464 1463 1463 1461 1458 1455 1452 1448 1444 1438 1433 1426 1419 1409 1402 1393 1388 1378 1367 1355 1346 1341 1339 1321 1307 1296 1290 1282 1276 1268 1260 1254 1249 1245 1242 1240 1241 1242
1459 1459 1458 1456 1454 1451 1448 1441 1436 1431 1427 1419 1411 1404 1395 1387 1380 1370 1361 1351 1335 1329 1326 1316 1301 1289 1278 1263 1256 1251 1244 1239 1232 1227 1222 1221 1222 1224
1456 1455 1453 1452 1449 1447 1441 1436 1430 1424 1418 1411 1403 1394 1388 1379 1372 1366 1357 1346 1334 1317 1314 1308 1291 1282 1259 1251 1243 1238 1228 1220 1212 1207 1202 1200 1202 1206
1452 1450 1449 1447 1444 1441 1437 1432 1426 1418 1411 1404 1394 1386 1380 1372 1363 1356 1350 1342 1329 1316 1304 1301 1284 1271 1261 1233 1227 1222 1214 1201 1193 1187 1183 1181 1183 1188
1448 1447 1445 1442 1438 1436 1433 1427 1419 1413 1407 1399 1388 1380 1372 1364 1355 1346 1339 1331 1323 1312 1297 1292 1278 1267 1250 1229 1213 1201 1196 1187 1179 1171 1168 1168 1169 1175
1444 1443 1440 1438 1435 1431 1428 1421 1414 1408 1402 1393 1386 1375 1367 1358 1348 1339 1330 1321 1311 1302 1292 1284 1275 1258 1248 1232 1206 1191 1185 1169 1167 1161 1160 1161 1163 1168
1441 1440 1438 1435 1431 1427 1422 1417 1411 1405 1399 1390 1380 1371 1362 1353 1344 1335 1322 1310 1300 1286 1281 1275 1265 1251 1238 1224 1208 1185 1179 1173 1160 1156 1154 1156 1161 1166
1439 1438 1434 1432 1427 1422 1417 1413 1407 1402 1395 1386 1377 1367 1358 1349 1339 1330 1319 1306 1296 1282 1266 1259 1252 1242 1230 1215 1197 1185 1171 1161 1154 1150 1150 1151 1158 1165
1436 1435 1432 1427 1422 1418 1413 1410 1405 1398 1391 1383 1375 1366 1356 1346 1335 1325 1316 1304 1292 1279 1265 1253 1237 1221 1213 1206 1194 1177 1166 1156 1145 1141 1144 1149 1155 1161
1433 1433 1430 1424 1419 1417 1412 1407 1402 1395 1387 1379 1371 1363 1353 1344 1333 1322 1312 1300 1287 1277 1266 1254 1241 1224 1205 1193 1181 1175 1161 1148 1136 1131 1135 1140 1145 1154
1430 1431 1428 1422 1418 1414 1410 1405 1398 1392 1383 1376 1368 1359 1350 1342 1330 1320 1309 1298 1286 1273 1263 1254 1242 1229 1216 1199 1181 1167 1160 1146 1133 1126 1124 1131 1140 1156
1428 1429 1425 1420 1416 1413 1407 1402 1396 1388 1381 1372 1365 1356 1346 1339 1328 1318 1307 1296 1287 1274 1262 1252 1241 1229 1216 1200 1185 1171 1158 1146 1136 1124 1115 1120 1132 1145
1426 1426 1422 1419 1414 1409 1405 1399 1393 1385 1377 1369 1362 1353 1344 1335 1326 1316 1306 1294 1284 1274 1264 1252 1239 1225 1213 1203 1189 1176 1163 1152 1138 1126 1118 1116 1123 1138
1424 1423 1419 1415 1412 1407 1403 1397 1390 1383 1375 1367 1358 1350 1341 1332 1324 1315 1304 1294 1285 1274 1264 1252 1240 1230 1217 1205 1194 1183 1172 1160 1148 1137 1130 1134 1143 1156